Regional Weather Roundup
Issued by NWS

Home | Current Version | Previous Version | Graphics & Text | Print | Product List | Glossary On
Versions: 1 2 3 4 5 6 7 8 9 10 11 12 13 14 15 16 17 18 19 20 21 22 23 24 25 26 27 28 29 30 31 32 33 34 35 36 37 38 39 40 41 42 43 44 45 46 47 48 49 50
000
ASUS43 KLMK 112002
RWRKY
KENTUCKY REGIONAL WEATHER ROUNDUP
NATIONAL WEATHER SERVICE LOUISVILLE KY
300 PM EST THU FEB 11 2016

NOTE "FAIR" INDICATES FEW OR NO CLOUDS BELOW 12,000 FEET
WITH NO SIGNIFICANT WEATHER AND/OR OBSTRUCTIONS TO VISIBILITY.

KYZ001>023-026-027-061>063-070>075-112100-
WESTERN AND SOUTH CENTRAL KENTUCKY

CITY           SKY/WX    TMP DP  RH WIND       PRES   REMARKS
PADUCAH        SUNNY     38  23  55 N9        30.25F WCI  31
HENDERSON      SUNNY     28  12  50 NE5       30.28F WCI  23
OWENSBORO      SUNNY     32  15  49 N7        30.29F WCI  26
HOPKINSVILLE   MOSUNNY   37  24  61 VRB5      30.24S WCI  33
BOWLING GREEN  MOSUNNY   36  17  46 CALM      30.25F
GLASGOW        NOT AVBL
$$

KYZ024-025-028>034-038-045-046-053-112100-
NORTH CENTRAL KENTUCKY

CITY           SKY/WX    TMP DP  RH WIND       PRES   REMARKS
LOUISVILLE/SDF MOSUNNY   32   7  35 CALM      30.27S
LOUISVILLE/LOU SUNNY     31   8  38 VRB3      30.27F
FORT KNOX      SUNNY     30   6  36 VRB6      30.23F WCI  24
$$

KYZ035>037-039>044-047>052-055>060-089>105-112100-
NORTHEAST KENTUCKY

CITY           SKY/WX    TMP DP  RH WIND       PRES   REMARKS
LEXINGTON      SUNNY     27  12  53 W3        30.24S
COVINGTON      MOSUNNY   24   4  42 N3        30.26S
FRANKFORT      SUNNY     28   7  41 CALM      30.24S
$$

KYZ054-064>069-076>088-106>120-112100-
SOUTHEAST KENTUCKY

CITY           SKY/WX    TMP DP  RH WIND       PRES   REMARKS
JACKSON        SUNNY     29  10  45 CALM      30.19S
LONDON         SUNNY     31  13  47 CALM      30.20F
SOMERSET       NOT AVBL
MIDDLESBORO    SUNNY     36  18  48 NW8       30.20S WCI  29
MONTICELLO     CLEAR     33  18  53 VRB7      30.24S WCI  27
$$




USA.gov is the U.S. government's official web portal to all federal, state and local government web resources and services.